Regional Weather Roundup
Issued by NWS

Home | Current Version | Previous Version | Graphics & Text | Print | Product List | Glossary On
Versions: 1 2 3 4 5 6 7 8 9 10 11 12 13 14 15 16 17 18 19 20 21 22 23 24 25 26 27 28 29 30 31 32 33 34 35 36 37 38 39 40 41 42 43 44 45 46 47 48 49 50
627
ASUS43 KDTX 280710
RWRMI
MICHIGAN HOURLY REGIONAL WEATHER ROUNDUP
NATIONAL WEATHER SERVICE DETROIT/PONTIAC MI
ISSUED BY NATIONAL WEATHER SERVICE GRAND RAPIDS MI
200 AM EST TUE FEB 28 2017

NOTE: "FAIR" INDICATES FEW OR NO CLOUDS BELOW 12,000 FEET WITH NO
SIGNIFICANT WEATHER AND/OR OBSTRUCTION TO VISIBILITY.

MIZ047>049-052>055-059>063-066>070-074>076-081>083-280800-
SOUTHEAST LOWER MICHIGAN

CITY           SKY/WX    TMP DP  RH WIND       PRES   REMARKS
ADRIAN         CLOUDY    37  37 100 SE5       30.16F FOG     WCI  33
ALMA           PTCLDY    36  32  88 SE6       30.13S WCI  31
ANN ARBOR      MOCLDY    38  37  97 CALM      30.16F FOG
BAD AXE        PTCLDY    35  31  87 S5        30.18S WCI  31
DETROIT CITY   PTCLDY    38  37  97 S5        30.20S WCI  34
DETROIT        MOCLDY    39  36  89 E3        30.19F FOG
FLINT          CLEAR     35  33  92 SE6       30.16F WCI  30
GROSSE ILE     CLOUDY    39  37  92 SE3       30.18F
HILLSDALE      CLOUDY    37  37 100 S7        30.13S FOG     WCI  32
HOWELL         MOCLDY    37  36  93 SE8       30.14F FOG     WCI  31

CITY           SKY/WX    TMP DP  RH WIND       PRES   REMARKS
JACKSON        MOCLDY    39  37  92 SE10      30.13F WCI  32
LANSING        PTCLDY    40  34  79 SE12      30.12F WCI  33
MASON          CLOUDY    38  37  93 SE6       30.13F WCI  34
MONROE         PTCLDY    38  38  99 CALM      30.17F FOG
MT. CLEMENS    CLEAR     34  34 100 S5        30.19S WCI  30
PONTIAC        CLOUDY    38  35  89 SE5       30.17S FOG     WCI  34
PORT HOPE        N/A     39  32  76 VRB3      30.17R
PORT HURON     CLEAR     32  32 100 CALM      30.22R
TRI CITIES     CLEAR     38  33  82 S8        30.15F WCI  32
YPSILANTI      MOCLDY    37  35  92 SE5       30.18F FOG     WCI  33
$$
MIZ043>046-050>051-056>058-064>065-071>073-077>080-280800-
SOUTHWEST LOWER MICHIGAN

CITY           SKY/WX    TMP DP  RH WIND       PRES   REMARKS
BATTLE CREEK   PTCLDY    40  38  93 S10       30.12F WCI  33
BENTON HARBOR  CLOUDY    45  39  79 SE10      30.06F
BIG RAPIDS     CLOUDY    29  27  91 CALM      30.09S
COLDWATER      CLOUDY    40  39  97 S8        30.13R FOG     WCI  35
HOLLAND        CLOUDY    42  36  79 SE8       30.09R
GRAND RAPIDS   PTCLDY    41  35  79 S8        30.09F
KALAMAZOO      CLOUDY    41  37  86 SE8       30.10F
MARSHALL       CLEAR     39  38  97 SE6       30.11F WCI  35
MOUNT PLEASANT PTCLDY    33  30  90 SE3       30.12S
MUSKEGON       CLOUDY    43  35  73 SE9       30.08S
STURGIS        CLOUDY    39  38  96 SE9       30.10S FOG     WCI  33
$$
MIZ016>042-280800-
NORTHERN LOWER MICHIGAN

CITY           SKY/WX    TMP DP  RH WIND       PRES   REMARKS
ALPENA         CLEAR     29  27  92 S3        30.15R
BEAVER ISLAND  MOCLDY    34  28  80 S6        30.06F WCI  29
BELLAIRE       CLEAR     26  25  96 CALM      30.10F
CADILLAC       PTCLDY    26  24  92 CALM      30.07F
CHARLEVOIX     CLEAR     35  25  67 SE3       30.11F
GAYLORD        CLEAR     29  20  69 SE3       30.09F
HOUGHTON LAKE  CLOUDY    31  25  78 E3        30.11F
MANISTEE       CLEAR     31  27  85 E7        30.06F WCI  24
OSCODA         CLOUDY    35  30  83 S6        30.16S WCI  30
PELLSTON       PTCLDY    20  16  84 CALM      30.10F
TRAVERSE CITY  CLEAR     30  25  81 CALM      30.07F
LUDINGTON      MOCLDY    36  32  85 SE6       30.05F WCI  31
$$
MIZ007>008-015-280800-
EASTERN UPPER MICHIGAN

CITY           SKY/WX    TMP DP  RH WIND       PRES   REMARKS
KINROSS        CLOUDY    23  22  96 SE6       30.09F WCI  16
MACKINAC ISLAN PTCLDY    32  25  77 S8        30.08F WCI  25
NEWBERRY       CLOUDY    27  23  86 SE7       30.05F WCI  19
S. S. MARIE    CLOUDY    25  21  85 E3        30.10S
$$
MIZ004>006-011>014-085-280800-
CENTRAL UPPER MICHIGAN

CITY           SKY/WX    TMP DP  RH WIND       PRES   REMARKS
MANISTIQUE     PTCLDY    33  32  97 SE5       30.04F FOG     WCI  29
ESCANABA       CLOUDY    34  32  92 S3        30.02F FOG
MENOMINEE      PTCLDY    34  32  92 S6        30.00F FOG     WCI  29
SAWYER-GWINN   CLOUDY    30  26  86 S8        29.98F WCI  22
$$
MIZ001>003-009>011-084-280800-
WESTERN UPPER MICHIGAN

CITY           SKY/WX    TMP DP  RH WIND       PRES   REMARKS
IRON MOUNTAIN  CLOUDY    31  25  78 SE5       29.96F WCI  26
HOUGHTON       CLOUDY    30  19  63 SW3       29.92S
COPPER HARBOR    N/A     31  22  69 W7        29.94F WCI  24
IRONWOOD       CLOUDY    36  26  67 S12       29.87S WCI  28
$$

ABBREVIATIONS USED IN REMARKS
   TC - TEMPERATURE IN CELSIUS
  WCI - WIND CHILL INDEX
   HX - HEAT INDEX
  VSB - VISIBILITY





USA.gov is the U.S. government's official web portal to all federal, state and local government web resources and services.